Taurus 1 (44530 NORAD) Tracking and Keplerian Element Data

This shows tracking and keplerian element data for the satellite.

Feedback or suggestion? Click here.




ElementValue
Catalog44530
NameTaurus 1
Epoch Orbit816
Epoch Day311.68315121
Epoch Year2019
RAAN25.5496
Inclination98.5831
Eccentricity0.0015764
Argument of Perigee106.9705
Mean Anonmoly253.3215
Mean Motion14.45261488
Decay Rate2.24E-06
L11 44530U 19059C 19311.68315121 .00000224 00000-0 76783-4 0 9995
L22 44530 98.5831 25.5496 0015764 106.9705 253.3215 14.45261488 8163

Live tracking and technical data element details for Taurus 1 (NORAD 44530). Taurus 1 can be tracked NOW for your location showing map with azimuth and elevation plus other details from your city location.

Track the satellite on the map from your city or location and see movement details for azimuth, elevation, latitude, longitude, range, height, and movement on the map or in text.







IsCatalogInMostPopularTable: catalog: 44530, numindb: 16
Update: records affected: 1



GetName: 44530 Taurus 1

Hit Count: updated at: Thu, 14 Nov 2019 05:49:21 GMT